Home   Weather   Schweinfurt   Past weeks

Flag for Germany Past Weather in Schweinfurt, Bavaria, Germany — Yesterday and Last 2 Weeks

Now
47 °F

Clear.


Feels Like: 47 °F
Forecast: 55 / 78 °F
Wind: No wind

Location: Illesheim

Current Time: Aug 31, 2016 at 4:39:43 AM

Latest Report: Aug 31, 2016 at 3:58 AM


Visibility: N/A

Pressure: 30.22 "Hg

Humidity: 89%

Dew Point: 44 °F

Location of SchweinfurtLocation

Past Weather in Schweinfurt — Graph

°F

Schweinfurt Temperature Yesterday

Maximum temperature yesterday: 76 °F (at 3:58 PM)
Minimum temperature yesterday: 50 °F (at 6:58 AM)
Average temperature yesterday: 64 °F

High & Low Weather Summary for the Past Weeks

 TemperatureHumidityPressure
High92 °F (Aug 28, 4:58 PM)100% (Aug 16, 6:58 AM)30.41 "Hg (Aug 16, 6:58 AM)
Low43 °F (Aug 18, 5:58 AM)23% (Aug 27, 4:58 PM)29.81 "Hg (Aug 18, 4:58 PM)
Average67 °F64%30.08 "Hg
* Reported Aug 16 2:58 AM — Aug 31 2:58 AM, Schweinfurt, Weather by CustomWeather, © 2016

Note: Actual official high and low records may vary slightly from our data, if they occured in-between our weather recording intervals... More about our weather records

Advertising

Schweinfurt Weather History for the Previous 24 Hours

Scroll right to see more
 ConditionsComfort  
Time TempWeatherWind HumidityBarometerVisibility
2:58 AM
Wed, Aug 31
54 °FClear.2 mph76%30.21 "HgN/A
1:58 AM54 °FClear.2 mph78%30.22 "HgN/A
12:58 AM55 °FClear.2 mph77%30.23 "HgN/A
11:58 PM
Tue, Aug 30
56 °FClear.1 mph74%30.23 "HgN/A
10:58 PM56 °FClear.2 mph74%30.24 "HgN/A
9:58 PM63 °FClear.No wind64%30.23 "HgN/A
8:58 PM65 °FSunny.2 mph58%30.22 "HgN/A
7:58 PM69 °FSunny.7 mph52%30.21 "HgN/A
6:58 PM73 °FSunny.8 mph44%30.19 "HgN/A
5:58 PM75 °FSunny.6 mph41%30.21 "HgN/A
4:58 PM75 °FSunny.8 mph44%30.22 "HgN/A
3:58 PM76 °FSunny.9 mph42%30.23 "HgN/A
2:58 PM75 °FSunny.6 mph44%30.25 "HgN/A
1:58 PM74 °FSunny.8 mph44%30.26 "HgN/A
12:58 PM73 °FSunny.12 mph48%30.26 "HgN/A
11:58 AM72 °FSunny.8 mph53%30.27 "HgN/A
10:58 AM69 °FSunny.8 mph60%30.28 "HgN/A
9:58 AM65 °FSunny.9 mph69%30.28 "HgN/A
8:58 AM60 °FSunny.5 mph80%30.27 "HgN/A
7:58 AM56 °FSunny.No wind91%30.26 "HgN/A
6:58 AM50 °FClear.3 mph94%30.26 "HgN/A
5:58 AM50 °FClear.No wind95%30.23 "HgN/A
4:58 AM51 °FClear.3 mph93%30.23 "HgN/A
Weather by CustomWeather, © 2016

See weather overviewHow to use our weather pages